Regional Weather Roundup
Issued by NWS Sioux Falls, SD

Home | Current Version | Previous Version | Text Only | Print | Product List | Glossary Off
Versions: 1 2 3 4 5 6 7 8 9 10 11 12 13 14 15 16 17 18 19 20 21 22 23 24 25 26 27 28 29 30 31 32 33 34 35 36 37 38 39 40 41 42 43 44 45 46 47 48 49 50

484
ASUS43 KFSD 172110
RWRFSD

WEATHER ROUNDUP FOR SE SOUTH DAKOTA/SW MINNESOTA/NW IOWA
NATIONAL WEATHER SERVICE SIOUX FALLS SD
300 PM CST WED JAN 17 2018

NOTE: "FAIR" INDICATES FEW OR NO CLOUDS BELOW 12,000 FEET WITH NO
SIGNIFICANT WEATHER AND OR OBSTRUCTIONS TO VISIBILITY.


SDZ038>040-050-052>070-172200-
SOUTHEAST SOUTH DAKOTA

CITY           SKY/WX    TMP DP  RH WIND       PRES   REMARKS
BROOKINGS      SUNNY     28  17  63 SW12      30.15F WCI  18
CHAMBERLAIN    SUNNY     40  24  52 W12       30.18F
HURON          SUNNY     41  18  39 W8        30.16F
MADISON        FAIR      27  18  69 SW12      30.15F WCI  16
MITCHELL       SUNNY     35  21  56 SW9       30.19F WCI  28
SIOUX FALLS    SUNNY     31  17  56 SW8G20    30.20F WCI  23
WINNER         FAIR      41  25  53 W9        30.20F
YANKTON        SUNNY     37  17  44 SW15      30.22F
$$

MNZ071-072-080-081-089-090-097-098-172200-
SOUTHWEST MINNESOTA

CITY           SKY/WX    TMP DP  RH WIND       PRES   REMARKS
FAIRMONT       SUNNY     28  16  60 SW25      30.15F WCI  13
JACKSON        SUNNY     28  18  64 SW20      30.17F WCI  15
LUVERNE        SUNNY     30  16  55 SW15      30.20F WCI  19
MARSHALL       SUNNY     29  17  61 NW9G22    30.12R WCI  20
MONTEVIDEO     SUNNY     39  18  41 W7        30.08F
PIPESTONE      SUNNY     25  14  63 W16       30.16S WCI  12
REDWOOD FALLS  SUNNY     30  15  53 W10       30.13S WCI  21
WINDOM         SUNNY     28   9  43 SW21      30.14F WCI  15
WORTHINGTON    SUNNY     27  17  66 SW21G26   30.15F WCI  13
$$

IAZ001>003-012>014-020>022-031-032-NEZ013-014-SDZ071-172200-
NORTHWEST IOWA

CITY           SKY/WX    TMP DP  RH WIND       PRES   REMARKS
CHEROKEE       SUNNY     30  17  57 SW14G24   30.26F WCI  19
DENISON        SUNNY     28  12  50 SW16G24   30.33F WCI  17
ESTHERVILLE    SUNNY     26  16  65 SW17      30.18F WCI  13
LE MARS        SUNNY     34  18  51 S14       30.25F WCI  24
ORANGE CITY    SUNNY     32  19  59 SW16G24   30.23F WCI  21
SHELDON        SUNNY     30  16  55 SW20      30.19F WCI  18
SIOUX CITY     SUNNY     34  18  52 SW13      30.30F WCI  25
SPENCER        SUNNY     30  16  56 SW17      30.21F WCI  18
STORM LAKE     SUNNY     27  16  63 SW20G28   30.26S WCI  13
$$

ABBREVIATIONS USED IN REMARKS
   TC - TEMPERATURE IN CELSIUS
  WCI - WIND CHILL INDEX
   HX - HEAT INDEX
  VSB - VISIBILITY





USA.gov is the U.S. government's official web portal to all federal, state and local government web resources and services.